OBJECT B, 100081

Orbit data source: Space-Track

You're viewing an uncataloged RSO

Recently launched and/or uncataloged RSOs may have evolving metadata. Metadata may include the following, but is not limited to: Owner, Manufacturer, Bus, Motor, and Mission.

OBJECT B, 100081 is a satellite owned by Skyroot (IN) in LEO that was launched on Sat, 18 Jul 2026 UTC launched from the Sirharikota (SRI). Unknown objects in Earth's orbit typically refer to objects detected orbiting the Earth but have not yet been identified or cataloged. These objects could be anything from previously untracked satellites, spent rocket stages, debris from satellite collisions, or even natural meteoroids temporarily captured by Earth's gravity.

Loading next visibility...
Identifier
100081, 2026-164B
Orbit
LEO
Country
Flag of ININ / IND
Related business
Flag of INSkyroot Aerospace (IN)
Manufacturer
Skyroot
Mission
Operational spacecraft
Bus & Motor
CUBESAT 3U?, Unknown motor
Mass
5 kg wet, 5 kg dry
Launch date (UTC)
2026-07-18 (3 weeks ago)
Launch vehicle
Unknown
Launch site
Sirharikota (SRI)
Object type
Unknown
Shape & HBR
BOX, 1.1 m
Radar Cross Section
Medium (>0.1 m² and <1 m²)

Expand to show TLE details & history
Last TLE update: 23 hours ago

TLE from 23 hours ago
0 OBJECT B
1 A0081U 26164B   26219.43518256  .00017281  00000-0  42358-3 0  9996
2 A0081  59.9231 225.9200 0009155 334.8148  25.2492 15.40865871  3104
Epoch: 2026-08-07T10:26Z
TLE epoch observation values (Epoch: 2026-08-07T10:26:39.773Z)
Latitude
0.00003°
Longitude
113.29337°
Altitude
439.507 km
Speed
7.652 km/s
True Right ascension
15h 03m 40s
True Declination
0° 00' 00"
Sunlit
Object was in daylight at epoch
Visualization orbit readout
Latitude
Unknown
Longitude
Unknown
Altitude
Unknown
Speed
Unknown
Apparent Right ascension
Unknown
Apparent Declination
Unknown
Sunlit
N/A
Visualization observer readout
Local Sidereal Time
23:56:35
Azimuth
Unknown
Elevation
Unknown
Doppler factor
Unknown
Orbital elements
Apogee altitude
449.006 km
Perigee altitude
436.517 km
Semi-major axis
6,820.898 km
Eccentricity
0.00092
Inclination
59.9231°
RAAN
225.92°
Arg. of periapsis
334.8148°
True anomaly
25.294°
Mean anomaly
25.2492°
Eccentric anomaly
25.27159°
Mean motion
3.85284 °/min
Orbital period
93.44 mins
BSTAR
0.00042358
Loading maneuver chart data...
Computing Atmospheric mass density...
Loading historical data...
Loading historical data...
Loading historical data...
Loading historical data...
Loading historical data...
Loading historical data...
Loading historical data...
Other satellites on launch #164 in the year 2026 (2026-07-18 UTC)

Documentation

Showing up to 5 results
|